GW6440 Weather Reports


time (UTC)temp
C
wind
direction
speed
KPH
gust
KPH
rain 1hr
cm
rain 24hr
cm
rain mn
cm
humidity
%
barometer
mb
20260504081503 12 231 0.0 1.6 0.00 0.00 0.00 91 1017.3
20260504050020 13 195 0.0 0.0 0.00 0.00 0.00 88 1018.8
20260504044528 13 195 0.0 0.0 0.00 0.00 0.00 88 1018.9
20260504043008 14 195 0.0 0.0 0.00 0.00 0.00 87 1019.0
20260504041512 14 195 0.0 0.0 0.00 0.00 0.00 87 1018.9
20260504040018 15 195 0.0 0.0 0.00 0.00 0.00 85 1018.8
20260504034522 14 195 0.0 0.0 0.00 0.00 0.00 85 1018.8
20260504033024 15 195 0.0 0.0 0.00 0.00 0.00 86 1018.7
20260504031510 15 249 0.0 0.0 0.00 0.00 0.00 81 1018.7
20260504030015 16 249 0.0 0.0 0.00 0.00 0.00 80 1018.7
20260504024520 15 249 0.0 1.6 0.00 0.00 0.00 83 1018.7
20260504023022 16 249 0.0 0.0 0.00 0.00 0.00 74 1018.5
20260504021528 16 249 0.0 0.0 0.00 0.00 0.00 79 1018.4
20260504020011 16 249 0.0 1.6 0.00 0.00 0.00 76 1018.2
20260504014515 17 249 0.0 1.6 0.00 0.00 0.00 71 1018.1
20260504013029 17 249 0.0 0.0 0.00 0.00 0.00 69 1018.0
20260504011528 17 249 0.0 0.0 0.00 0.00 0.00 67 1017.8
20260504010027 18 249 0.0 1.6 0.00 0.00 0.00 68 1017.8
20260504004514 18 249 0.0 1.6 0.00 0.00 0.00 65 1017.7
20260504003016 20 249 0.0 0.0 0.00 0.00 0.00 58 1017.6
20260504001524 21 249 0.0 1.6 0.00 0.00 0.00 55 1017.7
20260504000049 22 249 0.0 1.6 0.00 0.00 0.00 51 1017.5
20260503234508 22 276 1.6 3.2 0.00 0.00 0.00 49 1017.7
20260503233013 22 250 1.6 4.8 0.00 0.00 0.00 48 1017.8
20260503231519 22 260 1.6 8.0 0.00 0.00 0.00 45 1017.9
20260503230022 23 204 3.2 9.7 0.00 0.00 0.00 42 1017.7
20260503224503 23 169 3.2 11.3 0.00 0.00 0.00 41 1018.0
20260503223010 23 92 3.2 11.3 0.00 0.00 0.00 40 1018.1
20260503221514 23 277 4.8 11.3 0.00 0.00 0.00 42 1018.0
20260503220022 23 60 4.8 9.7 0.00 0.00 0.00 39 1018.2
20260503214524 24 267 3.2 11.3 0.00 0.00 0.00 40 1018.4
20260503213009 25 288 3.2 12.9 0.00 0.00 0.00 38 1018.5
20260503211516 24 120 4.8 14.5 0.00 0.00 0.00 38 1018.7
20260503210016 25 328 4.8 14.5 0.00 0.00 0.00 39 1018.8
20260503204522 24 315 4.8 11.3 0.00 0.00 0.00 38 1019.1
20260503203038 25 98 1.6 12.9 0.00 0.00 0.00 38 1019.2
20260503201509 24 304 4.8 12.9 0.00 0.00 0.00 40 1019.5
20260503200016 23 264 3.2 16.1 0.00 0.00 0.00 40 1019.7
20260503194518 23 255 3.2 12.9 0.00 0.00 0.00 39 1019.9
20260503193025 24 259 6.4 14.5 0.00 0.00 0.00 35 1020.2
20260503191526 24 249 6.4 11.3 0.00 0.00 0.00 36 1020.5
20260503190035 24 328 3.2 16.1 0.00 0.00 0.00 37 1020.5
20260503184517 24 241 4.8 16.1 0.00 0.00 0.00 38 1020.7
20260503183027 25 237 4.8 9.7 0.00 0.00 0.00 35 1020.9
20260503181526 25 293 3.2 8.0 0.00 0.00 0.00 37 1021.1
20260503180030 24 253 1.6 12.9 0.00 0.00 0.00 36 1021.2
20260503174528 25 347 1.6 6.4 0.00 0.00 0.00 31 1021.4
20260503173037 23 55 3.2 11.3 0.00 0.00 0.00 33 1021.7
20260503171533 26 11 3.2 8.0 0.00 0.00 0.00 31 1022.0